DW5920 Sevilla ES current weather conditions

sailwx.info

Wind from 283

Air temperature 13.9° C
Dewpoint 7.2° C

Last reported at 2017-Nov-23 23:02 UTC.
Time now 2017-Nov-23 23:42 UTC

Location: N 37°23' W 005°55'.
View on Google Maps.

See reports from other nearby stations

  
Tides and Currents Weather Stations Pressure Air Temp Water Temp Dewpoint Dewpoint Depression Visibility Wind Speed Wind Dir Waves Ship Positions
date/time (UTC)wind fromknots sea level pressurealtimeterstation pressurevisibilityair tempwater tempwave heightnotes
2017-Nov-23 23:02 283 13.9
2017-Nov-23 22:47 316 14.4
2017-Nov-23 22:32 316 0 gusting 2 15.0
2017-Nov-23 22:17 176 15.0
2017-Nov-23 22:02 176 15.0
2017-Nov-23 21:47 173 15.0
2017-Nov-23 21:32 172 15.6
2017-Nov-23 21:17 173 15.6
2017-Nov-23 21:02 174 16.1
2017-Nov-23 20:47 173 16.1
2017-Nov-23 20:32 173 16.1
2017-Nov-23 20:17 173 16.1
2017-Nov-23 20:02 173 16.1
2017-Nov-23 19:47 173 16.1
2017-Nov-23 19:32 173 16.1
2017-Nov-23 19:17 176 16.1
2017-Nov-23 19:02 203 16.1
2017-Nov-23 18:47 203 16.7
2017-Nov-23 18:32 203 16.7
2017-Nov-23 18:17 203 16.1
2017-Nov-23 18:02 203 16.7
2017-Nov-23 17:47 203 17.8
2017-Nov-23 17:32 203 18.9
2017-Nov-23 17:17 203 19.4
2017-Nov-23 17:02 203 20.6
2017-Nov-23 16:47 263 21.1
2017-Nov-23 16:32 270 21.7
2017-Nov-23 16:02 290 22.8
2017-Nov-23 15:47 229 22.8
2017-Nov-23 15:32 221 22.8
2017-Nov-23 15:17 143 22.8
2017-Nov-23 15:02 246 0 gusting 1 23.3
2017-Nov-23 14:47 224 0 gusting 3 22.8
2017-Nov-23 14:32 226 0 gusting 4 22.8
2017-Nov-23 14:17 087 22.8
2017-Nov-23 14:02 241 22.8
2017-Nov-23 13:47 118 0 gusting 1 22.2
2017-Nov-23 13:32 323 21.7
2017-Nov-23 13:17 056 22.2
2017-Nov-23 13:02 087 21.7
2017-Nov-23 12:47 218 21.1
2017-Nov-23 12:02 039 0 gusting 3 18.9
2017-Nov-23 11:47 242 18.9
2017-Nov-23 11:32 004 0 gusting 2 17.8
2017-Nov-23 11:17 333 0 gusting 2 17.2
2017-Nov-23 11:02 338 16.7
2017-Nov-23 10:47 067 0 gusting 4 16.7
2017-Nov-23 10:32 009 0 gusting 5 16.1
2017-Nov-23 10:17 022 1 gusting 4 15.6
2017-Nov-23 10:02 312 1 gusting 5 14.4
2017-Nov-23 09:47 330 0 gusting 5 14.4
2017-Nov-23 09:32 094 1 gusting 3 14.4
2017-Nov-23 09:17 339 0 gusting 3 13.9
2017-Nov-23 09:02 350 1 gusting 3 12.8
2017-Nov-23 08:47 046 1 gusting 4 12.2
2017-Nov-23 08:32 330 0 gusting 3 11.7
2017-Nov-23 08:02 032 9.4
2017-Nov-23 07:47 036 9.4
2017-Nov-23 07:32 036 9.4
2017-Nov-23 07:17 036 9.4
2017-Nov-23 07:02 046 9.4
2017-Nov-23 06:47 029 9.4
2017-Nov-23 06:32 027 8.9
2017-Nov-23 06:17 011 9.4
2017-Nov-23 06:02 043 9.4
2017-Nov-23 05:47 022 9.4
2017-Nov-23 05:32 015 9.4
2017-Nov-23 05:17 016 9.4
2017-Nov-23 05:02 358 9.4
2017-Nov-23 04:47 006 9.4
2017-Nov-23 04:32 006 9.4
2017-Nov-23 04:17 005 9.4
2017-Nov-23 04:02 043 9.4
2017-Nov-23 03:47 009 9.4
2017-Nov-23 03:32 029 9.4
2017-Nov-23 03:17 020 9.4
2017-Nov-23 03:02 328 10.0
2017-Nov-23 02:47 068 10.0
2017-Nov-23 02:32 064 10.0
2017-Nov-23 02:17 069 10.0
2017-Nov-23 02:02 015 10.0
2017-Nov-23 01:47 009 10.0
2017-Nov-23 01:32 033 10.0
2017-Nov-23 01:17 030 10.0
2017-Nov-23 01:02 112 10.0
2017-Nov-23 00:47 114 10.0
2017-Nov-23 00:32 114 10.6
2017-Nov-23 00:17 111 10.6
2017-Nov-23 00:02 018 11.1
2017-Nov-22 23:47 015 11.7
2017-Nov-22 23:32 015 11.7
2017-Nov-22 23:17 015 11.7
2017-Nov-22 23:02 015 12.2
2017-Nov-22 22:32 022 12.2
2017-Nov-22 21:32 013 12.8
2017-Nov-22 21:17 222 12.8
2017-Nov-22 21:02 222 12.8
2017-Nov-22 20:47 219 12.8
2017-Nov-22 20:02 219 13.3
2017-Nov-22 19:47 220 13.9
2017-Nov-22 19:17 201 15.0
2017-Nov-22 19:02 201 15.0
2017-Nov-22 12:47 288 19.4
2017-Nov-22 12:32 258 0 gusting 2 19.4
2017-Nov-22 12:17 210 19.4
2017-Nov-22 12:02 330 0 gusting 2 18.9
2017-Nov-22 11:47 305 0 gusting 3 18.3
2017-Nov-22 11:32 340 18.9
2017-Nov-22 11:17 301 17.8
2017-Nov-22 11:02 232 17.2
2017-Nov-22 10:47 086 16.7
2017-Nov-22 10:32 043 0 gusting 4 15.0
2017-Nov-22 10:17 061 1 gusting 5 14.4
2017-Nov-22 10:02 081 1 gusting 5 13.3
2017-Nov-22 09:47 060 1 gusting 6 12.8
2017-Nov-22 09:32 027 2 gusting 6 11.7
2017-Nov-22 09:17 060 2 gusting 6 10.0
2017-Nov-22 09:02 029 2 gusting 6 9.4
2017-Nov-22 08:47 347 1 gusting 6 8.9
2017-Nov-22 08:32 046 1 gusting 7 8.3
2017-Nov-22 08:17 020 2 gusting 6 7.8
2017-Nov-22 08:02 012 1 gusting 5 7.2
2017-Nov-22 07:47 348 1 gusting 4 6.7
2017-Nov-22 07:32 070 2 gusting 6 6.1
2017-Nov-22 07:17 079 1 gusting 6 6.7
2017-Nov-22 07:02 001 1 gusting 5 6.7
2017-Nov-22 06:47 012 1 gusting 4 6.7
2017-Nov-22 06:32 337 0 gusting 3 6.7
2017-Nov-22 06:17 001 0 gusting 5 6.7
2017-Nov-22 06:02 044 6.7
2017-Nov-22 05:47 256 6.7
2017-Nov-22 05:32 032 6.7
2017-Nov-22 05:17 274 6.7
2017-Nov-22 05:02 276 6.7
2017-Nov-22 04:47 277 6.7
2017-Nov-22 04:32 018 7.2
2017-Nov-22 03:02 026 0 gusting 2 8.9
2017-Nov-22 02:47 040 0 gusting 2 8.9
2017-Nov-22 02:32 285 8.3
2017-Nov-22 02:17 006 8.3
2017-Nov-22 02:02 077 0 gusting 1 8.9
2017-Nov-22 01:47 039 8.9
2017-Nov-22 01:32 027 8.9
2017-Nov-22 01:17 027 8.9
2017-Nov-22 01:02 037 9.4
2017-Nov-22 00:47 011 9.4
2017-Nov-22 00:32 271 9.4
2017-Nov-22 00:17 294 0 gusting 2 10.0
2017-Nov-21 23:17 061 10.6
2017-Nov-21 23:02 128 11.1